TimeCST,TemperatureF,Dew PointF,Humidity,Sea Level PressureIn,VisibilityMPH,Wind Direction,Wind SpeedMPH,Gust SpeedMPH,PrecipitationIn,Events,Conditions,WindDirDegrees,DateUTC
12:58 AM,55.0,53.1,93,30.24,0.5,Calm,Calm,-,N/A,Fog,Fog,0,2012-12-04 06:58:00
1:17 AM,53.6,53.6,100,30.24,1.8,SE,3.5,-,N/A,,Mostly Cloudy,140,2012-12-04 07:17:00
1:23 AM,53.6,53.6,100,30.24,1.2,Calm,Calm,-,N/A,,Scattered Clouds,0,2012-12-04 07:23:00
1:28 AM,55.4,53.6,94,30.23,1.0,SSE,3.5,-,N/A,,Mist,150,2012-12-04 07:28:00
1:36 AM,55.4,53.6,94,30.23,1.5,Calm,Calm,-,N/A,,Clear,0,2012-12-04 07:36:00
1:42 AM,55.4,53.6,94,30.23,3.0,Calm,Calm,-,N/A,,Clear,0,2012-12-04 07:42:00
1:58 AM,55.0,54.0,96,30.23,3.0,Calm,Calm,-,N/A,,Clear,0,2012-12-04 07:58:00
2:00 AM,53.6,53.6,100,30.23,1.2,Calm,Calm,-,N/A,,Clear,0,2012-12-04 08:00:00
2:04 AM,53.6,51.8,94,30.23,0.5,Calm,Calm,-,N/A,Fog,Fog,0,2012-12-04 08:04:00
2:14 AM,51.8,51.8,100,30.24,1.2,Calm,Calm,-,N/A,,Scattered Clouds,0,2012-12-04 08:14:00
2:26 AM,53.6,53.6,100,30.23,2.5,Calm,Calm,-,N/A,,Partly Cloudy,0,2012-12-04 08:26:00
2:34 AM,51.8,51.8,100,30.24,1.0,Calm,Calm,-,N/A,,Mist,0,2012-12-04 08:34:00
2:43 AM,53.6,51.8,94,30.23,2.5,Calm,Calm,-,N/A,,Clear,0,2012-12-04 08:43:00
2:47 AM,53.6,51.8,94,30.24,4.0,East,3.5,-,N/A,,Clear,80,2012-12-04 08:47:00
2:58 AM,53.1,52.0,96,30.24,6.0,Calm,Calm,-,N/A,,Clear,0,2012-12-04 08:58:00
3:41 AM,53.6,51.8,94,30.23,5.0,Calm,Calm,-,N/A,,Partly Cloudy,0,2012-12-04 09:41:00
3:50 AM,51.8,51.8,100,30.24,4.0,Calm,Calm,-,N/A,,Mostly Cloudy,0,2012-12-04 09:50:00
3:58 AM,52.0,51.1,97,30.23,2.5,Calm,Calm,-,N/A,,Mostly Cloudy,0,2012-12-04 09:58:00
4:02 AM,51.8,50.0,94,30.24,1.0,Calm,Calm,-,N/A,,Overcast,0,2012-12-04 10:02:00
4:06 AM,51.8,51.8,100,30.24,0.5,Calm,Calm,-,N/A,Fog,Fog,0,2012-12-04 10:06:00
4:58 AM,52.0,51.1,97,30.25,0.8,Calm,Calm,-,N/A,,Mist,0,2012-12-04 10:58:00
5:10 AM,51.8,51.8,100,30.26,1.2,Calm,Calm,-,N/A,,Overcast,0,2012-12-04 11:10:00
5:18 AM,51.8,50.0,94,30.26,2.0,Calm,Calm,-,N/A,,Overcast,0,2012-12-04 11:18:00
5:24 AM,50.0,48.2,94,30.27,1.5,Calm,Calm,-,N/A,,Overcast,0,2012-12-04 11:24:00
5:31 AM,51.8,50.0,94,30.27,0.5,Calm,Calm,-,N/A,Fog,Fog,0,2012-12-04 11:31:00
5:58 AM,50.0,48.9,96,30.27,0.2,NNE,3.5,-,N/A,Fog,Fog,30,2012-12-04 11:58:00
6:52 AM,51.8,50.0,94,30.28,1.2,Calm,Calm,-,N/A,,Overcast,0,2012-12-04 12:52:00
6:58 AM,51.1,50.0,96,30.28,1.0,Calm,Calm,-,N/A,,Overcast,0,2012-12-04 12:58:00
7:03 AM,51.8,50.0,94,30.29,0.8,Calm,Calm,-,N/A,,Mist,0,2012-12-04 13:03:00
7:12 AM,51.8,51.8,100,30.29,1.8,Calm,Calm,-,N/A,,Mostly Cloudy,0,2012-12-04 13:12:00
7:14 AM,51.8,51.8,100,30.29,3.0,Calm,Calm,-,N/A,,Mostly Cloudy,0,2012-12-04 13:14:00
7:21 AM,51.8,51.8,100,30.29,8.0,Calm,Calm,-,N/A,,Scattered Clouds,0,2012-12-04 13:21:00
7:58 AM,57.0,55.0,93,30.30,10.0,Calm,Calm,-,N/A,,Clear,0,2012-12-04 13:58:00
8:58 AM,64.9,61.0,87,30.31,10.0,SSE,4.6,-,N/A,,Clear,160,2012-12-04 14:58:00
9:58 AM,71.1,63.0,75,30.30,10.0,South,5.8,-,N/A,,Clear,190,2012-12-04 15:58:00
10:58 AM,77.0,61.0,58,30.28,10.0,SSW,8.1,-,N/A,,Clear,200,2012-12-04 16:58:00
11:58 AM,75.0,57.0,53,30.26,10.0,South,9.2,-,N/A,,Partly Cloudy,180,2012-12-04 17:58:00
12:58 PM,75.9,55.0,48,30.24,10.0,South,4.6,-,N/A,,Partly Cloudy,190,2012-12-04 18:58:00
1:58 PM,75.9,55.9,50,30.22,10.0,SSE,9.2,-,N/A,,Mostly Cloudy,160,2012-12-04 19:58:00
2:58 PM,73.9,57.0,55,30.22,10.0,South,6.9,-,N/A,,Mostly Cloudy,190,2012-12-04 20:58:00
3:58 PM,72.0,55.9,57,30.22,10.0,South,4.6,-,N/A,,Clear,180,2012-12-04 21:58:00
4:58 PM,66.9,57.0,70,30.22,10.0,Calm,Calm,-,N/A,,Clear,0,2012-12-04 22:58:00
5:58 PM,64.0,57.0,78,30.23,10.0,South,3.5,-,N/A,,Clear,190,2012-12-04 23:58:00
6:58 PM,64.0,59.0,84,30.23,10.0,Calm,Calm,-,N/A,,Clear,0,2012-12-05 00:58:00
7:58 PM,61.0,57.0,87,30.23,10.0,Calm,Calm,-,N/A,,Clear,0,2012-12-05 01:58:00
8:58 PM,59.0,55.9,90,30.23,10.0,Calm,Calm,-,N/A,,Clear,0,2012-12-05 02:58:00
9:42 PM,59.0,57.2,94,30.24,1.8,Calm,Calm,-,N/A,,Clear,0,2012-12-05 03:42:00
9:58 PM,57.9,57.0,97,30.23,1.0,Calm,Calm,-,N/A,,Clear,0,2012-12-05 03:58:00
10:02 PM,57.2,55.4,94,30.24,0.8,Calm,Calm,-,N/A,,Clear,0,2012-12-05 04:02:00
10:43 PM,55.4,55.4,100,30.22,0.8,Calm,Calm,-,N/A,,Mist,0,2012-12-05 04:43:00
10:58 PM,55.9,54.0,93,30.21,0.2,Calm,Calm,-,N/A,Fog,Fog,0,2012-12-05 04:58:00
11:58 PM,55.9,55.0,97,30.20,0.2,Calm,Calm,-,N/A,Fog,Fog,0,2012-12-05 05:58:00